Anderson, SC

4:37 AM EST on November 20, 2017 (GMT -0500)
Anderson Regional

Weather History for KAND - April, 2014

Change the Weather History Date:

Sunday, April 13, 2014

  Actual Average Record
Temperature  
Mean Temperature 66 °F -  
Max Temperature 81 °F 73 °F 90 °F (1981)
Min Temperature 54 °F 50 °F 34 °F (1989)
Cooling Degree Days 2    
Growing Degree Days 16 (Base 50)    
Moisture  
Dew Point 54 °F    
Average Humidity 64    
Maximum Humidity 90    
Minimum Humidity 39    
Precipitation  
Precipitation 0.00 in - - ()
Sea Level Pressure  
Sea Level Pressure 30.11 in    
Wind  
Wind Speed 4 mph (South)    
Max Wind Speed 15 mph    
Max Gust Speed 22 mph    
Visibility 10 miles    
Events      
Averages and records for this station are not official NWS values.
T = Trace of Precipitation, MM = Missing Value Source: NWS Daily Summary

Daily Weather History Graph

Daily Weather History Graph

Search for Another Location

Airport or City:

Trip Planner

Search our weather history database for the weather conditions in past years. The results will help you decide how hot, cold, wet, or windy it might be!

Date:

Astronomy

Apr. 13, 2014 Rise Set
Actual Time 7:01 AM EDT 8:01 PM EDT
Civil Twilight 6:36 AM EDT 8:27 PM EDT
Nautical Twilight 6:05 AM EDT 8:57 PM EDT
Astronomical Twilight 5:34 AM EDT 9:29 PM EDT
Moon 6:41 PM EDT (4/13) 5:55 AM EDT (4/13)
Length of Visible Light 13h 50m
Length of Day
12h 59m
Waxing Gibbous, 97% of the Moon is Illuminated
Apr 13
Waxing Gibbous
Apr 15
Full
Apr 22
Last Quarter
Apr 29
New
May 6
First Quarter

Hourly Weather History & Observations

Time (EDT) Temp. Dew Point Humidity Pressure Visibility Wind Dir Wind Speed Gust Speed Precip Events Conditions
12:56 AM 63.0 °F 51.1 °F 65% 30.12 in 10.0 mi Calm Calm - N/A   Clear
1:56 AM 60.1 °F 52.0 °F 75% 30.12 in 10.0 mi Calm Calm - N/A   Clear
2:56 AM 55.9 °F 52.0 °F 87% 30.12 in 10.0 mi SSE 4.6 mph - N/A   Clear
3:56 AM 60.1 °F 53.1 °F 78% 30.12 in 10.0 mi South 8.1 mph - N/A   Clear
4:56 AM 57.9 °F 52.0 °F 81% 30.12 in 10.0 mi SSW 4.6 mph - N/A   Clear
5:56 AM 57.0 °F 52.0 °F 83% 30.13 in 10.0 mi Calm Calm - N/A   Clear
6:56 AM 54.0 °F 51.1 °F 90% 30.15 in 10.0 mi Calm Calm - N/A   Clear
7:56 AM 57.0 °F 54.0 °F 89% 30.16 in 10.0 mi ENE 3.5 mph - N/A   Clear
8:56 AM 61.0 °F 54.0 °F 78% 30.18 in 10.0 mi South 4.6 mph - N/A   Scattered Clouds
9:56 AM 64.0 °F 55.0 °F 73% 30.19 in 10.0 mi SW 6.9 mph - N/A   Mostly Cloudy
10:56 AM 68.0 °F 55.0 °F 63% 30.19 in 10.0 mi SW 9.2 mph - N/A   Overcast
11:56 AM 72.0 °F 55.9 °F 57% 30.18 in 10.0 mi SW 10.4 mph - N/A   Mostly Cloudy
12:56 PM 75.0 °F 57.0 °F 53% 30.14 in 10.0 mi Variable 5.8 mph - N/A   Partly Cloudy
1:56 PM 77.0 °F 57.0 °F 50% 30.12 in 10.0 mi WSW 4.6 mph - N/A   Mostly Cloudy
2:56 PM 79.0 °F 55.9 °F 45% 30.09 in 10.0 mi SW 5.8 mph - N/A   Mostly Cloudy
3:56 PM 78.1 °F 54.0 °F 43% 30.08 in 10.0 mi SSE 9.2 mph - N/A   Mostly Cloudy
4:56 PM 79.0 °F 52.0 °F 39% 30.06 in 10.0 mi South 8.1 mph - N/A   Mostly Cloudy
5:56 PM 79.0 °F 53.1 °F 40% 30.05 in 10.0 mi South 13.8 mph - N/A   Clear
6:56 PM 75.9 °F 54.0 °F 46% 30.05 in 10.0 mi South 6.9 mph - N/A   Clear
7:56 PM 73.0 °F 54.0 °F 51% 30.03 in 10.0 mi SE 4.6 mph - N/A   Mostly Cloudy
8:56 PM 72.0 °F 55.0 °F 55% 30.04 in 10.0 mi SE 5.8 mph - N/A   Mostly Cloudy
9:56 PM 71.1 °F 55.0 °F 57% 30.05 in 10.0 mi SE 6.9 mph - N/A   Mostly Cloudy
10:56 PM 68.0 °F 55.9 °F 65% 30.04 in 10.0 mi SSE 5.8 mph - N/A   Scattered Clouds
11:56 PM 68.0 °F 55.0 °F 63% 30.04 in 10.0 mi South 15.0 mph 21.9 mph N/A   Clear